Weather History for Platteville, WI

Change the Weather History Date:

Thursday, February 7, 2013

  Actual Average (KDBQ) Record (KDBQ)
Temperature  
Mean Temperature 30 °F 21 °F  
Max Temperature 33 °F 29 °F 51 °F (1882)
Min Temperature 28 °F 13 °F -26 °F (1875)
Degree Days  
Heating Degree Days 34 44  
Month to date heating degree days 311  
Since 1 July heating degree days 4548  
Cooling Degree Days 0 0  
Month to date cooling degree days 0  
Year to date cooling degree days 0  
Moisture  
Dew Point 30 °F    
Average Humidity 93    
Maximum Humidity 100    
Minimum Humidity 80    
Precipitation  
Precipitation 0.13 in 0.04 in 0.42 in (1881)
Month to date precipitation 0.30  
Year to date precipitation 1.47  
Snow  
Snow 0.00 in 0.30 in - ()
Month to date snowfall 2.5  
Since 1 July snowfall 27.1  
Snow Depth -    
Sea Level Pressure  
Sea Level Pressure 29.97 in    
Wind  
Wind Speed 8 mph (NE)    
Max Wind Speed 21 mph    
Max Gust Speed 24 mph    
Visibility 5 miles    
Events      
T = Trace of Precipitation, MM = Missing Value Source: NWS Daily Summary

Daily Weather History Graph

Daily Weather History Graph

Search for Another Location

Airport:

Trip Planner

Search our weather history database for the weather conditions in past years. The results will help you decide how hot, cold, wet, or windy it might be!

Date:

Astronomy

Feb. 07, 2013 Rise Set
Actual Time 7:08 AM CST 5:23 PM CST
Civil Twilight 6:39 AM CST 5:52 PM CST
Nautical Twilight 6:06 AM CST 6:26 PM CST
Astronomical Twilight 5:33 AM CST 6:59 PM CST
Moon 4:50 AM CST (2/7) 2:46 PM CST (2/7)
Length of Visible Light 11h 13m
Length of Day
10h 14m
Waning Crescent, 9% of the Moon is Illuminated
Feb 7
Waning Crescent
Feb 10
New
Feb 17
First Quarter
Feb 25
Full
Mar 4
Last Quarter

Hourly Weather History & Observations

Time (CST) Temp. Windchill Dew Point Humidity Pressure Visibility Wind Dir Wind Speed Gust Speed Precip Events Conditions
12:15 AM 33.8 °F 28.6 °F 30.2 °F 87% 30.01 in 10.0 mi SE 5.8 mph - N/A   Mostly Cloudy
12:35 AM 33.8 °F - 30.2 °F 87% 30.02 in 10.0 mi Calm Calm - N/A   Overcast
12:55 AM 33.8 °F 27.7 °F 30.2 °F 87% 30.01 in 10.0 mi East 6.9 mph - N/A   Overcast
1:15 AM 33.8 °F 27.7 °F 30.2 °F 87% 30.00 in 10.0 mi ESE 6.9 mph - N/A   Overcast
1:35 AM 33.8 °F 28.6 °F 30.2 °F 87% 30.00 in 10.0 mi East 5.8 mph - N/A   Overcast
1:55 AM 32.0 °F 24.8 °F 30.2 °F 93% 29.99 in 7.0 mi East 8.1 mph - N/A   Mostly Cloudy
2:15 AM 33.8 °F 27.7 °F 30.2 °F 87% 30.00 in 10.0 mi East 6.9 mph - N/A   Mostly Cloudy
2:35 AM 33.8 °F 27.7 °F 30.2 °F 87% 29.99 in 10.0 mi East 6.9 mph - N/A   Overcast
2:55 AM 33.8 °F 27.0 °F 30.2 °F 87% 29.99 in 10.0 mi ESE 8.1 mph - N/A   Mostly Cloudy
3:15 AM 33.8 °F 27.0 °F 30.2 °F 87% 29.98 in 10.0 mi ESE 8.1 mph - N/A   Mostly Cloudy
3:35 AM 33.8 °F 26.4 °F 30.2 °F 87% 29.97 in 10.0 mi ESE 9.2 mph - N/A   Mostly Cloudy
3:55 AM 33.8 °F 27.0 °F 30.2 °F 87% 29.97 in 7.0 mi ESE 8.1 mph - N/A   Mostly Cloudy
4:15 AM 33.8 °F 27.0 °F 30.2 °F 87% 29.97 in 7.0 mi ESE 8.1 mph - N/A   Overcast
4:35 AM 32.0 °F 24.8 °F 30.2 °F 93% 29.97 in 7.0 mi ESE 8.1 mph - N/A   Overcast
4:55 AM 32.0 °F 24.2 °F 30.2 °F 93% 29.97 in 7.0 mi East 9.2 mph - N/A   Overcast
5:15 AM 32.0 °F 24.8 °F 30.2 °F 93% 29.97 in 7.0 mi East 8.1 mph - N/A   Overcast
5:35 AM 32.0 °F 24.8 °F 32.0 °F 100% 29.96 in 5.0 mi East 8.1 mph - N/A   Overcast
5:55 AM 32.0 °F 24.8 °F 32.0 °F 100% 29.96 in 5.0 mi East 8.1 mph - N/A   Mostly Cloudy
6:15 AM 32.0 °F 23.6 °F 32.0 °F 100% 29.95 in 5.0 mi ESE 10.4 mph - N/A   Mostly Cloudy
6:35 AM 32.0 °F 24.2 °F 32.0 °F 100% 29.95 in 5.0 mi East 9.2 mph - N/A   Overcast
6:55 AM 33.8 °F 26.4 °F 32.0 °F 93% 29.95 in 4.0 mi East 9.2 mph - N/A   Overcast
7:15 AM 32.0 °F 24.8 °F 32.0 °F 100% 29.96 in 2.5 mi ESE 8.1 mph - N/A   Overcast
8:15 AM 33.8 °F 27.7 °F 32.0 °F 93% 29.96 in 1.8 mi ESE 6.9 mph - N/A   Overcast
8:35 AM 33.8 °F 27.0 °F 32.0 °F 93% 29.96 in 1.5 mi ESE 8.1 mph - N/A   Overcast
8:55 AM 33.8 °F 27.7 °F 32.0 °F 93% 29.97 in 1.5 mi ESE 6.9 mph - N/A   Overcast
9:15 AM 33.8 °F 27.7 °F 32.0 °F 93% 29.97 in 1.2 mi ESE 6.9 mph - 0.01 in   Overcast
9:35 AM 33.8 °F 28.6 °F 32.0 °F 93% 29.96 in 1.2 mi ESE 5.8 mph - 0.01 in   Overcast
9:55 AM 33.8 °F 28.6 °F 32.0 °F 93% 29.96 in 1.2 mi East 5.8 mph - 0.01 in   Overcast
10:15 AM 33.8 °F 30.8 °F 32.0 °F 93% 29.96 in 1.2 mi East 3.5 mph - N/A   Overcast
10:35 AM 33.8 °F 30.8 °F 32.0 °F 93% 29.96 in 1.2 mi East 3.5 mph - 0.01 in   Overcast
10:55 AM 33.8 °F 30.8 °F 32.0 °F 93% 29.97 in 1.2 mi NE 3.5 mph - 0.01 in   Overcast
11:15 AM 33.8 °F 30.8 °F 32.0 °F 93% 29.96 in 1.2 mi NE 3.5 mph - 0.01 in   Overcast
11:35 AM 33.8 °F 29.6 °F 32.0 °F 93% 29.95 in 1.2 mi ENE 4.6 mph - 0.01 in   Overcast
11:55 AM 33.8 °F 29.6 °F 32.0 °F 93% 29.94 in 1.0 mi ENE 4.6 mph - 0.02 in   Overcast
12:15 PM 33.8 °F 27.7 °F 32.0 °F 93% 29.93 in 1.0 mi ENE 6.9 mph - 0.01 in   Overcast
12:35 PM 33.8 °F 29.6 °F 32.0 °F 93% 29.92 in 0.8 mi ENE 4.6 mph - 0.03 in   Overcast
12:55 PM 33.8 °F 28.6 °F 32.0 °F 93% 29.91 in 0.8 mi ENE 5.8 mph - 0.04 in   Overcast
1:15 PM 33.8 °F 29.6 °F 32.0 °F 93% 29.91 in 1.0 mi ENE 4.6 mph - N/A   Overcast
1:35 PM 33.8 °F 30.8 °F 32.0 °F 93% 29.90 in 1.0 mi NNE 3.5 mph - N/A   Overcast
1:55 PM 32.0 °F 26.4 °F 32.0 °F 100% 29.90 in 0.8 mi North 5.8 mph - 0.01 in   Overcast
2:15 PM 32.0 °F 26.4 °F 32.0 °F 100% 29.90 in 1.2 mi North 5.8 mph - N/A   Overcast
2:35 PM 32.0 °F 26.4 °F 32.0 °F 100% 29.90 in 1.0 mi North 5.8 mph - 0.01 in   Overcast
2:55 PM 32.0 °F 25.6 °F 32.0 °F 100% 29.90 in 1.0 mi North 6.9 mph - 0.01 in   Overcast
3:15 PM 32.0 °F 25.6 °F 32.0 °F 100% 29.91 in 2.0 mi North 6.9 mph - 0.01 in   Overcast
3:35 PM 32.0 °F 24.8 °F 32.0 °F 100% 29.91 in 1.5 mi North 8.1 mph - 0.01 in   Overcast
3:55 PM 32.0 °F 25.6 °F 32.0 °F 100% 29.91 in 1.8 mi North 6.9 mph - 0.02 in   Overcast
4:15 PM 32.0 °F 24.2 °F 32.0 °F 100% 29.91 in 2.0 mi North 9.2 mph - N/A   Overcast
4:35 PM 32.0 °F 24.8 °F 32.0 °F 100% 29.92 in 2.0 mi North 8.1 mph - N/A   Overcast
4:55 PM 32.0 °F 25.6 °F 32.0 °F 100% 29.92 in 1.5 mi North 6.9 mph - 0.01 in   Overcast
5:15 PM 32.0 °F 24.2 °F 32.0 °F 100% 29.93 in 2.0 mi North 9.2 mph - N/A   Overcast
5:35 PM 32.0 °F 23.0 °F 32.0 °F 100% 29.94 in 3.0 mi North 11.5 mph - N/A   Overcast
5:55 PM 32.0 °F 23.6 °F 32.0 °F 100% 29.95 in 3.0 mi NNW 10.4 mph - N/A   Overcast
6:15 PM 32.0 °F 24.2 °F 32.0 °F 100% 29.96 in 3.0 mi North 9.2 mph - N/A   Overcast
6:35 PM 32.0 °F 23.0 °F 32.0 °F 100% 29.97 in 4.0 mi NNW 11.5 mph - N/A   Overcast
6:55 PM 32.0 °F 20.5 °F 30.2 °F 93% 29.99 in 4.0 mi NNW 18.4 mph - N/A   Overcast
7:15 PM 30.2 °F 18.1 °F 28.4 °F 93% 29.99 in 3.0 mi NNW 18.4 mph 24.2 mph N/A   Overcast
7:35 PM 30.2 °F 18.9 °F 28.4 °F 93% 30.01 in 7.0 mi North 16.1 mph - N/A   Overcast
7:55 PM 30.2 °F 19.3 °F 26.6 °F 86% 30.01 in 10.0 mi NNW 15.0 mph 23.0 mph N/A   Overcast
8:15 PM 30.2 °F 20.8 °F 26.6 °F 86% 30.02 in 10.0 mi NNW 11.5 mph - N/A   Overcast
8:35 PM 30.2 °F 19.3 °F 26.6 °F 86% 30.02 in 10.0 mi North 15.0 mph - N/A   Overcast
8:55 PM 30.2 °F 18.9 °F 26.6 °F 86% 30.03 in 10.0 mi North 16.1 mph - N/A   Overcast
9:15 PM 30.2 °F 19.8 °F 26.6 °F 86% 30.04 in 10.0 mi North 13.8 mph - N/A   Overcast
9:35 PM 30.2 °F 19.3 °F 26.6 °F 86% 30.04 in 10.0 mi North 15.0 mph - N/A   Overcast
9:55 PM 30.2 °F 19.8 °F 26.6 °F 86% 30.05 in 10.0 mi NNW 13.8 mph - N/A   Overcast
10:15 PM 30.2 °F 19.8 °F 26.6 °F 86% 30.06 in 10.0 mi NNW 13.8 mph 21.9 mph N/A   Overcast
10:35 PM 30.2 °F 18.5 °F 26.6 °F 86% 30.06 in 10.0 mi North 17.3 mph - N/A   Overcast
10:55 PM 28.4 °F 16.2 °F 26.6 °F 93% 30.06 in 10.0 mi North 17.3 mph - N/A   Overcast
11:15 PM 28.4 °F 15.1 °F 24.8 °F 86% 30.07 in 10.0 mi North 20.7 mph 24.2 mph N/A   Overcast
11:35 PM 28.4 °F 15.4 °F 23.0 °F 80% 30.08 in 10.0 mi North 19.6 mph - N/A   Overcast
11:55 PM 28.4 °F 16.6 °F 23.0 °F 80% 30.09 in 10.0 mi North 16.1 mph - N/A   Overcast